Tracking 19832 objects as of 25-Aug-2019
HD Live streaming from Space Station
objects crossing your sky now

COSMOS 2251 DEB

Track COSMOS 2251 DEB now!
10-day predictions


NORAD ID: 34445
Int'l Code: 1993-036SN
Perigee: 546.4 km
Apogee: 680.5 km
Inclination: 74.0 °
Period: 96.8 minutes
Semi major axis: 6984 km
RCS: 0.0208 m2 (small)
Launch date: June 16, 1993
Source: Commonwealth of Independent States (former USSR) (CIS)
Launch site: PLESETSK MISSILE AND SPACE COMPLEX (PKMTR)

Note: This is SATELLITE DEBRIS
aabbcc
Your satellite tracking list
Your tracking list is empty




NASA's NSSDC Master Catalog

Two Line Element Set (TLE):
1 34445U 93036SN  19236.80564911 +.00000930 +00000-0 +98925-4 0  9995
2 34445 074.0110 097.9974 0095994 048.8001 074.7580 14.87315705563328
Source of the keplerian elements: AFSPC